TDRS 11

Last updated on Thu Jul 03 2025 00:02:38 GMT+0000 (Coordinated Universal Time)

1 39070U 13004A 25183.56404473 .00000085 00000+0 00000+0 0 9990 2 39070 3.0546 23.7469 0004818 38.3610 247.3706 1.00274536 43185
UTC large
Height (km)
Speed (km/s)
/
Latitude / Longitude
Inclination (degrees)
Orbital Period (minutes)
Azimuth
Elevation
Range (km)
Doppler Factor

Next 0 passes for location: London (51.5072 / 0.1276)

Sorry there are no passes over London.